sat.trackr.live / text

‹ back to catalog

ASTRA 2G

NORAD 40364 · 2014-089A

PAYLOAD ACTIVE UNKNOWN

§ Identity

Operator
Country
SES
Launch date
2014-12-27
Launch site
TYMSC
Launch vehicle
Mass (kg)
RCS (m²)
0.00

Purposes: comms

External: N2YO · Heavens-Above · Gunter

§ Orbital elements

Epoch: 2026-09-15T20:43:47.060832Z

Period
1,436.08 min
Inclination
0.0595°
Eccentricity
0.0002978
Mean motion
1.00272934 rev/d
Perigee alt
35,773.7 km
Apogee alt
35,798.8 km
Semi-major
42,164.4 km
B*
0.0000e+0
RAAN
349.9002°
Arg perigee
103.7421°
Mean anomaly
240.2912°
Rev number
4,287

§ Raw data

ASTRA 2G1 40364U 14089A   26258.86373913  .00000144  00000+0  00000+0 0  99992 40364   0.0595 349.9002 0002978 103.7421 240.2912  1.00272934 42878

JSON: /api/v1/satellites/40364 · /tle

For live sub-satellite position, see the globe view (requires WebGL).

§ Visibility from observer

Set your observer location to see the next 7 days of passes ≥ 10°. The values pass through the URL so the page stays shareable.

No JS? Fill the form by hand. The geolocation button needs JavaScript.